カタログに戻る

SL-16 DEB

運用中LEO
NORAD 22421·DEBRIS·🇷🇺 Russia

打ち上げ Dec 25, 1992 から Baikonur Cosmodrome

Loading…

次のパス (今後24時間)

TLE

最新Source: Space-Track

元期: Sep 14, 2026, 02:40 UTC

1 22421U 92093DN  26257.11166118  .00000110  00000-0  82669-4 0  9998
2 22421  71.0360 299.8814 0093456 175.5521 215.3681 14.11744250729669

AllMySatでSL-16 DEBをリアルタイム追跡

Download on the App Store